Tiempo cada hora Abaturovo

Hoy, 20 Octubre, Martes

Tiempo Temperatura Precipitaciones Viento Presión Humedad
00:00 0°C° 0.5 mm 5 mps 742 mmHg 87%
01:00 0°C° 0.5 mm 5 mps 742 mmHg 88%
02:00 0°C° 0 mm 5 mps 742 mmHg 89%
03:00 0°C° 0 mm 5 mps 743 mmHg 87%
04:00 0°C° 0 mm 5 mps 743 mmHg 84%
05:00 0°C° 0 mm 4 mps 743 mmHg 82%
06:00 0°C° 0.1 mm 4 mps 743 mmHg 84%
07:00 0°C° 0.1 mm 4 mps 743 mmHg 86%
08:00 +1°C° 0.1 mm 3 mps 744 mmHg 88%
09:00 +1°C° 0.1 mm 3 mps 744 mmHg 88%
10:00 +1°C° 0.1 mm 3 mps 744 mmHg 88%
11:00 0°C° 0.1 mm 4 mps 745 mmHg 87%
12:00 +1°C° 0.1 mm 4 mps 745 mmHg 84%
13:00 +1°C° 0.1 mm 4 mps 746 mmHg 80%
14:00 +3°C° 0.1 mm 4 mps 747 mmHg 77%
15:00 +1°C° 0.1 mm 4 mps 747 mmHg 79%
16:00 0°C° 0.1 mm 4 mps 748 mmHg 82%
17:00 -1°C° 0.1 mm 4 mps 748 mmHg 84%
18:00 0°C° 0 mm 3 mps 749 mmHg 85%
19:00 0°C° 0 mm 3 mps 749 mmHg 86%
20:00 0°C° 0 mm 3 mps 750 mmHg 87%
21:00 0°C° 0 mm 3 mps 750 mmHg 88%
22:00 -1°C° 0 mm 3 mps 750 mmHg 89%
23:00 -1°C° 0 mm 3 mps 751 mmHg 90%

Mañana, 21 Octubre, Miércoles

Tiempo Temperatura Precipitaciones Viento Presión Humedad
00:00 -1°C° 0 mm 3 mps 751 mmHg 91%
01:00 -2°C° 0 mm 3 mps 752 mmHg 92%
02:00 -2°C° 0 mm 3 mps 752 mmHg 93%
03:00 -2°C° 0 mm 3 mps 752 mmHg 93%
04:00 -2°C° 0 mm 3 mps 752 mmHg 92%
05:00 -2°C° 0 mm 3 mps 752 mmHg 92%
06:00 -2°C° 0 mm 3 mps 752 mmHg 89%
07:00 -2°C° 0 mm 3 mps 752 mmHg 87%
08:00 -1°C° 0 mm 2 mps 752 mmHg 84%
09:00 +1°C° 0 mm 2 mps 752 mmHg 80%
10:00 +2°C° 0 mm 2 mps 752 mmHg 76%
11:00 +2°C° 0 mm 2 mps 752 mmHg 73%
12:00 +3°C° 0 mm 2 mps 752 mmHg 72%
13:00 +3°C° 0 mm 2 mps 752 mmHg 72%
14:00 +3°C° 0 mm 2 mps 752 mmHg 71%
15:00 +2°C° 0 mm 2 mps 752 mmHg 77%
16:00 +2°C° 0 mm 1 mps 752 mmHg 83%
17:00 +1°C° 0 mm 1 mps 752 mmHg 89%
18:00 +1°C° 0 mm 1 mps 752 mmHg 91%
19:00 +2°C° 0 mm 1 mps 752 mmHg 93%
20:00 +2°C° 0 mm 1 mps 752 mmHg 95%
21:00 +2°C° 0 mm 1 mps 752 mmHg 95%
22:00 +2°C° 0 mm 1 mps 751 mmHg 96%
23:00 +2°C° 0 mm 1 mps 751 mmHg 97%

Pasado mañana, 22 Octubre, Jueves

Tiempo Temperatura Precipitaciones Viento Presión Humedad
00:00 +2°C° 0 mm 1 mps 751 mmHg 96%
01:00 +3°C° 0 mm 1 mps 751 mmHg 96%
02:00 +3°C° 0 mm 1 mps 751 mmHg 96%
03:00 +3°C° 0 mm 1 mps 751 mmHg 96%
04:00 +3°C° 0 mm 1 mps 751 mmHg 96%
05:00 +3°C° 0 mm 1 mps 751 mmHg 96%
06:00 +2°C° 0 mm 2 mps 751 mmHg 95%
07:00 +3°C° 0 mm 2 mps 750 mmHg 95%
08:00 +3°C° 0 mm 2 mps 750 mmHg 95%
09:00 +4°C° 0 mm 2 mps 750 mmHg 93%
10:00 +4°C° 0 mm 2 mps 750 mmHg 90%
11:00 +4°C° 0 mm 3 mps 749 mmHg 88%
12:00 +4°C° 0 mm 3 mps 749 mmHg 88%
13:00 +4°C° 0 mm 3 mps 749 mmHg 88%
14:00 +5°C° 0 mm 3 mps 748 mmHg 87%
15:00 +5°C° 0.2 mm 3 mps 747 mmHg 89%
16:00 +5°C° 0.2 mm 4 mps 746 mmHg 90%
17:00 +4°C° 0.2 mm 4 mps 746 mmHg 92%
18:00 +5°C° 0.9 mm 4 mps 745 mmHg 93%
19:00 +5°C° 0.9 mm 4 mps 744 mmHg 94%
20:00 +5°C° 0.9 mm 4 mps 744 mmHg 95%
21:00 +5°C° 0.8 mm 4 mps 743 mmHg 95%
22:00 +6°C° 0.8 mm 4 mps 743 mmHg 96%
23:00 +7°C° 0.8 mm 3 mps 742 mmHg 96%

23 Octubre, Viernes

Tiempo Temperatura Precipitaciones Viento Presión Humedad
00:00 +7°C° 0.6 mm 4 mps 742 mmHg 95%
01:00 +8°C° 0.6 mm 4 mps 742 mmHg 94%
02:00 +10°C° 0.6 mm 4 mps 741 mmHg 93%
03:00 +10°C° 0.3 mm 4 mps 741 mmHg 91%
04:00 +9°C° 0.3 mm 5 mps 741 mmHg 90%
05:00 +9°C° 0.3 mm 5 mps 741 mmHg 88%
06:00 +9°C° 0 mm 5 mps 741 mmHg 88%
07:00 +9°C° 0 mm 5 mps 741 mmHg 88%
08:00 +9°C° 0 mm 5 mps 742 mmHg 88%
09:00 +11°C° 0 mm 4 mps 742 mmHg 86%
10:00 +11°C° 0 mm 4 mps 742 mmHg 85%
11:00 +11°C° 0 mm 4 mps 742 mmHg 84%
12:00 +11°C° 0.2 mm 4 mps 741 mmHg 86%
13:00 +11°C° 0.2 mm 4 mps 741 mmHg 88%
14:00 +11°C° 0.2 mm 4 mps 740 mmHg 91%
15:00 +11°C° 1.3 mm 4 mps 740 mmHg 92%
16:00 +11°C° 1.3 mm 4 mps 739 mmHg 93%
17:00 +11°C° 1.3 mm 4 mps 738 mmHg 95%
18:00 +11°C° 1.2 mm 4 mps 738 mmHg 95%
19:00 +11°C° 1.2 mm 4 mps 738 mmHg 95%
20:00 +11°C° 1.2 mm 4 mps 737 mmHg 94%
21:00 +11°C° 0.7 mm 4 mps 737 mmHg 93%
22:00 +11°C° 0.7 mm 4 mps 737 mmHg 92%
23:00 +10°C° 0.7 mm 4 mps 737 mmHg 91%

24 Octubre, Sábado

Tiempo Temperatura Precipitaciones Viento Presión Humedad
00:00 +10°C° 0.8 mm 4 mps 737 mmHg 90%
01:00 +10°C° 0.8 mm 4 mps 737 mmHg 89%
02:00 +10°C° 0.8 mm 4 mps 737 mmHg 88%
03:00 +10°C° 0.1 mm 4 mps 737 mmHg 87%
04:00 +10°C° 0.1 mm 4 mps 737 mmHg 87%
05:00 +10°C° 0.1 mm 4 mps 737 mmHg 86%
06:00 +10°C° 0.1 mm 4 mps 738 mmHg 85%
07:00 +10°C° 0.1 mm 4 mps 738 mmHg 85%
08:00 +9°C° 0.1 mm 5 mps 738 mmHg 84%
09:00 +9°C° 0 mm 5 mps 739 mmHg 79%
10:00 +9°C° 0 mm 5 mps 740 mmHg 74%
11:00 +9°C° 0 mm 5 mps 740 mmHg 69%
12:00 +9°C° 0 mm 5 mps 741 mmHg 69%
13:00 +8°C° 0 mm 4 mps 741 mmHg 70%
14:00 +9°C° 0 mm 3 mps 741 mmHg 70%
15:00 +8°C° 0 mm 3 mps 741 mmHg 75%
16:00 +7°C° 0 mm 2 mps 742 mmHg 79%
17:00 +7°C° 0 mm 1 mps 742 mmHg 84%
18:00 +6°C° 0 mm 1 mps 742 mmHg 85%
19:00 +6°C° 0 mm 1 mps 742 mmHg 86%
20:00 +5°C° 0 mm 1 mps 743 mmHg 87%
21:00 +5°C° 0 mm 1 mps 743 mmHg 86%
22:00 +4°C° 0 mm 0 mps 743 mmHg 86%
23:00 +4°C° 0 mm 0 mps 743 mmHg 86%

25 Octubre, Domingo

Tiempo Temperatura Precipitaciones Viento Presión Humedad
00:00 +4°C° 0 mm 0 mps 743 mmHg 87%
01:00 +3°C° 0 mm 0 mps 743 mmHg 88%
02:00 +3°C° 0 mm 0 mps 742 mmHg 89%
03:00 +4°C° 0 mm 1 mps 743 mmHg 89%
04:00 +3°C° 0 mm 1 mps 743 mmHg 90%
05:00 +3°C° 0 mm 1 mps 743 mmHg 90%
06:00 +3°C° 0 mm 1 mps 743 mmHg 90%
07:00 +3°C° 0 mm 1 mps 743 mmHg 89%
08:00 +4°C° 0 mm 1 mps 743 mmHg 88%
09:00 +3°C° 0 mm 2 mps 744 mmHg 85%
10:00 +4°C° 0 mm 2 mps 744 mmHg 83%
11:00 +5°C° 0 mm 2 mps 744 mmHg 80%
12:00 +5°C° 0 mm 2 mps 745 mmHg 77%
13:00 +5°C° 0 mm 3 mps 745 mmHg 75%
14:00 +5°C° 0 mm 3 mps 745 mmHg 72%
15:00 +4°C° 0 mm 3 mps 746 mmHg 74%
16:00 +4°C° 0 mm 2 mps 746 mmHg 75%
17:00 +4°C° 0 mm 2 mps 746 mmHg 77%
18:00 +3°C° 0 mm 2 mps 747 mmHg 80%
19:00 +3°C° 0 mm 2 mps 747 mmHg 83%
20:00 +1°C° 0 mm 3 mps 747 mmHg 86%
21:00 +2°C° 0 mm 2 mps 748 mmHg 88%
22:00 +1°C° 0 mm 2 mps 748 mmHg 90%
23:00 +1°C° 0 mm 2 mps 748 mmHg 91%

26 Octubre, Lunes

Tiempo Temperatura Precipitaciones Viento Presión Humedad
00:00 -1°C° 0 mm 2 mps 748 mmHg 92%
01:00 -1°C° 0 mm 2 mps 748 mmHg 93%
02:00 -1°C° 0 mm 2 mps 748 mmHg 94%
03:00 -1°C° 0 mm 2 mps 749 mmHg 95%
04:00 -2°C° 0 mm 2 mps 749 mmHg 95%
05:00 -2°C° 0 mm 2 mps 749 mmHg 96%
06:00 -1°C° 0 mm 2 mps 749 mmHg 94%
07:00 +1°C° 0 mm 2 mps 749 mmHg 91%
08:00 +1°C° 0 mm 2 mps 749 mmHg 89%
09:00 +1°C° 0 mm 3 mps 749 mmHg 85%
10:00 +2°C° 0 mm 3 mps 749 mmHg 82%
11:00 +3°C° 0 mm 3 mps 749 mmHg 78%
12:00 +3°C° 0.1 mm 3 mps 748 mmHg 82%
13:00 +3°C° 0.1 mm 3 mps 748 mmHg 86%
14:00 +3°C° 0.1 mm 3 mps 748 mmHg 90%
15:00 +3°C° 0.4 mm 3 mps 748 mmHg 91%
16:00 +3°C° 0.4 mm 3 mps 747 mmHg 92%
17:00 +3°C° 0.4 mm 3 mps 747 mmHg 93%
18:00 +2°C° 0 mm 3 mps 748 mmHg 89%
19:00 +1°C° 0 mm 3 mps 749 mmHg 85%
20:00 0°C° 0 mm 3 mps 749 mmHg 82%
21:00 0°C° 0 mm 3 mps 750 mmHg 84%
22:00 -1°C° 0 mm 3 mps 750 mmHg 86%
23:00 -2°C° 0 mm 2 mps 751 mmHg 88%
Mostrar más

Necesitamos Su Consentimiento

Meteoprog y nuestros Proveedores de Servicios pueden almacenar y acceder a sus datos personales como cookies, identificadores de dispositivo u otras tecnologías similares de su dispositivo y procesar dichos datos para personalizar contenido y anuncios, además de ofrecer funciones de redes sociales y analizar el tráfico.

  • Almacenar y/o acceder a información en su dispositivo

    Se puede almacenar o acceder a cookies, identificadores de dispositivo u otra información de su dispositivo para los fines anteriormente indicados.

  • Anuncios y contenido personalizados, medición de anuncios y contenido, percepciones del público, y desarrollo de productos

    Los anuncios y el contenido pueden personalizarse en base a su perfil. Se pueden añadir más datos para personalizar mejor los anuncios y contenidos. Se puede medir el rendimiento de los anuncios y contenidos. Se puede obtener la percepción sobre el público que ha visto los anuncios y contenidos. Dichos datos pueden usarse para desarrollar o mejorar la experiencia del usuario, sistemas y software.

Al hacer clic en ‘Estoy De Acuerdo’ usted permitirá el uso de las cookies, identificadores de dispositivo, balizas web u otras tecnologías similares indicadas. Su configuración puede cambiarse desde el navegador de su dispositivo.

Para ciertos fines, los intereses legítimos pueden ser considerados por encima del consentimiento. Puede leer más sobre ello en nuestra Política de Privacidad y Cookies.